Location: Miri
(4.3833°N, 113.9833°E)
Time: 01:33:55
(UTC+08:00)

Hubble Space Telescope - Visible Passes

Search period start: 04 August 2021 00:00
Search period end: 14 August 2021 00:00
Orbit: 535 x 539 km, 28.5° (Epoch: 02 August)

Date Brightness Start Highest point End Pass type
(mag) Time Alt. Az. Time Alt. Az. Time Alt. Az.
04 Aug 3.1 20:28:12 10° NNW 20:29:47 16° N 20:29:47 16° N visible
05 Aug 2.5 20:16:47 10° NNW 20:19:24 22° N 20:19:24 22° N visible
06 Aug 1.9 20:05:29 10° NW 20:09:04 32° NNE 20:09:04 32° NNE visible
07 Aug 1.3 19:54:17 10° NW 19:58:14 44° NNE 19:58:48 41° NE visible
08 Aug 0.8 19:43:10 10° NW 19:47:15 64° NNE 19:48:35 39° E visible
09 Aug 0.7 19:32:08 10° WNW 19:36:16 89° SSW 19:38:25 27° ESE visible
10 Aug 1.0 19:21:12 10° WNW 19:25:17 62° SSW 19:28:16 17° SE visible
11 Aug 1.6 19:10:22 10° WNW 19:14:17 43° SSW 19:18:09 10° SE visible
12 Aug 3.4 05:27:35 10° S 05:28:53 11° SSE 05:30:12 10° SE visible
12 Aug 2.2 18:59:38 10° W 19:03:18 30° SSW 19:06:57 10° SSE visible
13 Aug 3.1 05:15:26 10° S 05:17:56 16° SSE 05:20:26 10° ESE visible
